Location: Augustenthal
(51.7167°N, 10.2833°E)
Time: 21:47:01
(UTC+00:00)

ALOS 2 - Pass Details

Date: 21 September 2021
Orbit: 630 x 632 km, 97.9° (Epoch: 16 October)

Event Time Altitude Azimuth Distance (km) Brightness Sun altitude
Exits shadow 21:57:11 17° 7° (N) 1,632 5.2 -35.6°
Drops below altitude 10° 21:58:16 10° 360° (N) 2,026 5.9 -35.7°
Sets 22:00:35 0° 352° (N) 2,939 7.0 -35.8°
